Location: Edoum�
(0.9447°N, 10.6482°E)
Time: 04:14:35
(UTC+00:00)

deb Kosmos-1486 - Visible Passes

Search period start: 26 November 2020 00:00
Search period end: 06 December 2020 00:00
Orbit: 666 x 678 km, 74.0° (Epoch: 25 November)

Date Brightness Start Highest point End Pass type
(mag) Time Alt. Az. Time Alt. Az. Time Alt. Az.
26 Nov ? 04:43:05 10° ESE 04:44:28 11° ESE 04:45:51 10° E visible
26 Nov ? 18:37:50 10° WNW 18:40:38 16° WSW 18:43:27 10° SW visible
27 Nov ? 17:30:23 10° NNW 17:35:04 84° W 17:39:48 10° S visible
28 Nov ? 18:05:46 10° NW 18:09:13 20° WSW 18:12:40 10° SSW visible
30 Nov ? 17:33:53 10° NW 17:37:47 26° WSW 17:41:41 10° SSW visible
01 Dec ? 04:11:46 10° SSE 04:15:46 27° ESE 04:19:45 10° NE visible
03 Dec ? 03:40:45 10° SSE 03:44:20 21° ESE 03:47:53 10° NE visible
04 Dec ? 04:13:42 10° SSW 04:18:28 87° ESE 04:23:11 10° NNE visible
05 Dec ? 03:09:54 10° SE 03:12:53 17° ESE 03:15:51 10° ENE visible
